This is the latest recevied weather packets stored in our database for station/object G6FJI-13. If no packets are shown the sender has not sent any weather packets the latest 10 day(s).
| Time | Temp. | Humidity | Pressure | Rain* | Wind** | Luminosity | Snow |
|---|---|---|---|---|---|---|---|
| 1778243257 | 14.44° C | 71% | 1019.4 hPa | 0 mm | - | 93 W/m² | - |
| 1778238435 | 15.56° C | 65% | 1019.4 hPa | 0 mm | - | 200 W/m² | - |
| 1778236613 | 16.67° C | 62% | 1019.7 hPa | 0 mm | - | 147 W/m² | - |
| 1778236037 | 16.67° C | 59% | 1019.5 hPa | 0 mm | - | 607 W/m² | - |
| 1778235394 | 16.67° C | 63% | 1019.3 hPa | 0 mm | - | 522 W/m² | - |
| 1778231796 | 13.89° C | 70% | 1019.4 hPa | 0 mm | - | 206 W/m² | - |
| 1778224045 | 10.56° C | 86% | 1019.1 hPa | 0 mm | - | 74 W/m² | - |
| 1778219189 | 8.89° C | 92% | 1018.9 hPa | 0 mm | - | 23 W/m² | - |
| 1778217346 | 8.33° C | 92% | 1018.8 hPa | 0 mm | - | 12 W/m² | - |
| 1778212413 | 7.78° C | 91% | 1018.6 hPa | 0 mm | - | 0 W/m² | - |
| 1778211845 | 7.78° C | 91% | 1018.7 hPa | 0 mm | - | 0 W/m² | - |
| 1778197923 | 9.44° C | 84% | 1019 hPa | 0 mm | - | 0 W/m² | - |
| 1778194802 | 10.56° C | 81% | 1019.3 hPa | 0 mm | - | 0 W/m² | - |
| 1778191146 | 11.11° C | 76% | 1019.3 hPa | 0 mm | - | 0 W/m² | - |
| 1778182690 | 13.33° C | 68% | 1018 hPa | 0 mm | - | 1 W/m² | - |
| 1778176694 | 14.44° C | 57% | 1017.6 hPa | 0 mm | - | 20 W/m² | - |
| 1778175495 | 15° C | 57% | 1017.7 hPa | 0 mm | - | 31 W/m² | - |
| 1778173020 | 15.56° C | 44% | 1017.5 hPa | 0 mm | - | 77 W/m² | - |
| 1778171837 | 16.11° C | 47% | 1017.4 hPa | 0 mm | - | 102 W/m² | - |
| 1778168172 | 15.56° C | 46% | 1018 hPa | 0 mm | - | 68 W/m² | - |
| 1778167576 | 15.56° C | 45% | 1017.7 hPa | 0 mm | - | 84 W/m² | - |
| 1778162719 | 16.11° C | 44% | 1018.3 hPa | 0 mm | - | 170 W/m² | - |
| 1778160177 | 15° C | 48% | 1018.2 hPa | 0 mm | - | 165 W/m² | - |
| 1778158363 | 15.56° C | 49% | 1018.6 hPa | 0 mm | - | 564 W/m² | - |
| 1778155944 | 16.11° C | 48% | 1018.8 hPa | 0 mm | - | 710 W/m² | - |
* Rain latest hour (hover to see other rain measurements)
** Current wind speed in m/s (hover to see current wind gust speed)